Regional Weather Roundup
Issued by NWS

Home | Current Version | Previous Version | Text Only | Print | Product List | Glossary On
Versions: 1 2 3 4 5 6 7 8 9 10 11 12 13 14 15 16 17 18 19 20 21 22 23 24 25 26 27 28 29 30 31 32 33 34 35 36 37 38 39 40 41 42 43 44 45 46 47 48 49 50
316
ASUS43 KTOP 270408
RWRKS

WEATHER ROUNDUP FOR KANSAS
NATIONAL WEATHER SERVICE GOODLAND KS
1100 PM CDT FRI AUG 26 2016

NOTE:  "FAIR" INDICATES FEW OR NO CLOUDS BELOW 12,000 FEET WITH NO
SIGNIFICANT WEATHER AND/OR OBSTRUCTIONS TO VISIBILITY.

KSZ001>006-013>018-027>032-041>047-270500-
NORTHWEST KANSAS

CITY           SKY/WX    TMP DP  RH WIND       PRES   REMARKS
GOODLAND       CLOUDY    54  51  90 E3        30.08S
HAYS           CLOUDY    68  59  73 E7        30.04R
HILL CITY      LGT RAIN  59  56  89 NE12      30.07F
RUSSELL        CLOUDY    67  66  97 NE7       30.02S
$$

KSZ061>065-074>080-084>089-270500-
SOUTHWEST KANSAS

CITY           SKY/WX    TMP DP  RH WIND       PRES   REMARKS
DODGE CITY     PTCLDY    67  64  90 E6        30.05R
ELKHART          N/A     66  56  70 S8          N/A
GARDEN CITY    PTCLDY    70  61  73 SE13      30.04R
GREAT BEND     CLEAR     70  59  68 SE8       30.02S
LIBERAL        CLOUDY    73  63  68 SE10      30.06R
PRATT          MOCLDY    69  63  80 E3        30.04R
$$

KSZ066>073-081>083-090>101-270500-
SOUTHEAST KANSAS

CITY           SKY/WX    TMP DP  RH WIND       PRES   REMARKS
CHANUTE        PTCLDY    72  69  90 S5        30.02S
COFFEYVILLE    CLOUDY    75  71  87 S6        30.02S
HUTCHINSON     CLEAR     71  68  90 E6        30.02S
MEDICINE LODGE   N/A     74  67  78 SE3       30.01R
NEWTON         PTCLDY    72  68  87 E6        30.03F
PARSONS        MOCLDY    72  70  93 CALM      30.03S
WICHITA INTL   PTCLDY    74  69  85 S9        30.02R
WICHITA JABRA  CLEAR     73  69  87 S6        30.02S
WICHITA MCCONL CLEAR     74  69  83 S7        30.02S
WINFIELD       CLEAR     73  68  84 SE6       30.03S
$$

KSZ007>012-019>026-033>040-048>060-102>105-270500-
NORTHEAST KANSAS

CITY           SKY/WX    TMP DP  RH WIND       PRES   REMARKS
CONCORDIA      CLOUDY    67  65  93 CALM      30.03F
EMPORIA        PTCLDY    71  68  90 S7        30.02F
LAWRENCE       CLOUDY    71  70  96 E5        30.04S
MANHATTAN      CLEAR     68  67  96 CALM      30.02F
MARYSVILLE     CLOUDY    68  68 100 E7        30.04F
OLATHE IND     RAIN      71  70  96 N3        30.05F FOG
OLATHE EXE     CLOUDY   N/A N/A N/A NE7       30.05S
SALINA         CLEAR     73  67  81 E6        30.02F
TOPEKA BILLARD CLOUDY    70  68  93 E5        30.03F
TOPEKA FORBES  CLOUDY    72  70  93 SE6       30.05R
$$




USA.gov is the U.S. government's official web portal to all federal, state and local government web resources and services.